When you browse on this site, cookies collect data to enhance your experience and personalize the content and advertising you see.
Visit our Privacy Policy to learn more. By continuing to use the site, you agree to this use of cookies and data.
  • In Lithuania
  • List of Countries
  • For 7 days
  • Water Temperature
  • Satellite Maps
  • Weather Map
  • Weather Widgets
  • user-avatar
    Login

    Hourly Weather Andora

    Today, 22 February, Friday

    Time Temperature Precipitation Wind Pressure Humidity
    00:00 +1°C° 0 mm 2 mps 630 mmHg 55%
    01:00 +1°C° 0 mm 2 mps 629 mmHg 52%
    02:00 +1°C° 0 mm 2 mps 629 mmHg 48%
    03:00 +1°C° 0 mm 2 mps 629 mmHg 44%
    04:00 +1°C° 0 mm 2 mps 629 mmHg 41%
    05:00 +1°C° 0 mm 2 mps 629 mmHg 39%
    06:00 +1°C° 0 mm 2 mps 629 mmHg 35%
    07:00 +3°C° 0 mm 2 mps 630 mmHg 36%
    08:00 +5°C° 0 mm 2 mps 631 mmHg 36%
    09:00 +7°C° 0 mm 2 mps 631 mmHg 36%
    10:00 +9°C° 0 mm 2 mps 632 mmHg 34%
    11:00 +10°C° 0 mm 2 mps 632 mmHg 32%
    12:00 +13°C° 0 mm 2 mps 633 mmHg 30%
    13:00 +13°C° 0 mm 2 mps 632 mmHg 31%
    14:00 +13°C° 0 mm 2 mps 632 mmHg 32%
    15:00 +13°C° 0 mm 2 mps 631 mmHg 32%
    16:00 +9°C° 0 mm 2 mps 630 mmHg 38%
    17:00 +6°C° 0 mm 2 mps 629 mmHg 43%
    18:00 +4°C° 0 mm 2 mps 628 mmHg 48%
    19:00 +3°C° 0 mm 2 mps 628 mmHg 45%
    20:00 +3°C° 0 mm 2 mps 628 mmHg 42%
    21:00 +3°C° 0 mm 2 mps 628 mmHg 38%
    22:00 +3°C° 0 mm 2 mps 628 mmHg 40%
    23:00 +3°C° 0 mm 2 mps 628 mmHg 41%

    Tomorrow, 23 February, Saturday

    Time Temperature Precipitation Wind Pressure Humidity
    00:00 +3°C° 0 mm 2 mps 628 mmHg 42%
    01:00 +4°C° 0 mm 2 mps 628 mmHg 45%
    02:00 +4°C° 0 mm 2 mps 628 mmHg 48%
    03:00 +4°C° 0 mm 2 mps 628 mmHg 51%
    04:00 +4°C° 0 mm 2 mps 628 mmHg 52%
    05:00 +4°C° 0 mm 2 mps 628 mmHg 53%
    06:00 +5°C° 0 mm 1 mps 628 mmHg 54%
    07:00 +7°C° 0 mm 1 mps 629 mmHg 52%
    08:00 +9°C° 0 mm 1 mps 630 mmHg 49%
    09:00 +11°C° 0 mm 1 mps 631 mmHg 47%
    10:00 +12°C° 0 mm 1 mps 631 mmHg 44%
    11:00 +13°C° 0 mm 2 mps 632 mmHg 41%
    12:00 +15°C° 0 mm 2 mps 632 mmHg 38%
    13:00 +14°C° 0 mm 2 mps 632 mmHg 40%
    14:00 +14°C° 0 mm 2 mps 632 mmHg 42%
    15:00 +13°C° 0 mm 2 mps 631 mmHg 44%
    16:00 +9°C° 0 mm 2 mps 630 mmHg 53%
    17:00 +7°C° 0 mm 2 mps 629 mmHg 63%
    18:00 +5°C° 0 mm 1 mps 629 mmHg 73%
    19:00 +4°C° 0 mm 1 mps 629 mmHg 72%
    20:00 +4°C° 0 mm 1 mps 629 mmHg 72%
    21:00 +3°C° 0 mm 1 mps 630 mmHg 72%
    22:00 +3°C° 0 mm 1 mps 630 mmHg 70%
    23:00 +3°C° 0 mm 1 mps 630 mmHg 68%

    Day after tomorrow, 24 February, Sunday

    Time Temperature Precipitation Wind Pressure Humidity
    00:00 +2°C° 0 mm 0 mps 630 mmHg 66%
    01:00 +1°C° 0 mm 0 mps 630 mmHg 68%
    02:00 +2°C° 0 mm 1 mps 630 mmHg 71%
    03:00 +2°C° 0 mm 1 mps 630 mmHg 73%
    04:00 +2°C° 0 mm 1 mps 630 mmHg 72%
    05:00 +1°C° 0 mm 1 mps 630 mmHg 71%
    06:00 +1°C° 0 mm 1 mps 630 mmHg 70%
    07:00 +3°C° 0 mm 1 mps 631 mmHg 62%
    08:00 +5°C° 0 mm 1 mps 632 mmHg 54%
    09:00 +6°C° 0 mm 0 mps 633 mmHg 46%
    10:00 +9°C° 0 mm 1 mps 634 mmHg 43%
    11:00 +10°C° 0 mm 1 mps 634 mmHg 40%
    12:00 +11°C° 0 mm 1 mps 635 mmHg 37%
    13:00 +11°C° 0 mm 1 mps 634 mmHg 40%
    14:00 +11°C° 0 mm 1 mps 634 mmHg 43%
    15:00 +11°C° 0 mm 1 mps 633 mmHg 46%
    16:00 +8°C° 0 mm 1 mps 633 mmHg 57%
    17:00 +5°C° 0 mm 0 mps 632 mmHg 69%
    18:00 +3°C° 0 mm 0 mps 631 mmHg 81%
    19:00 +2°C° 0 mm 0 mps 631 mmHg 82%
    20:00 +2°C° 0 mm 0 mps 631 mmHg 83%
    21:00 +2°C° 0 mm 0 mps 632 mmHg 84%
    22:00 +2°C° 0 mm 0 mps 632 mmHg 84%
    23:00 +3°C° 0 mm 1 mps 632 mmHg 84%

    25 February, Monday

    Time Temperature Precipitation Wind Pressure Humidity
    00:00 +2°C° 0 mm 1 mps 632 mmHg 84%
    01:00 +2°C° 0 mm 1 mps 632 mmHg 85%
    02:00 +2°C° 0 mm 1 mps 632 mmHg 85%
    03:00 +2°C° 0 mm 1 mps 632 mmHg 86%
    04:00 +2°C° 0 mm 1 mps 631 mmHg 86%
    05:00 +2°C° 0 mm 1 mps 631 mmHg 85%
    06:00 +2°C° 0 mm 1 mps 631 mmHg 84%
    07:00 +4°C° 0 mm 1 mps 632 mmHg 72%
    08:00 +6°C° 0 mm 1 mps 633 mmHg 60%
    09:00 +8°C° 0 mm 1 mps 634 mmHg 48%
    10:00 +8°C° 0 mm 2 mps 634 mmHg 43%
    11:00 +9°C° 0 mm 2 mps 635 mmHg 37%
    12:00 +12°C° 0 mm 2 mps 635 mmHg 31%
    13:00 +12°C° 0 mm 2 mps 634 mmHg 33%
    14:00 +10°C° 0 mm 2 mps 634 mmHg 34%
    15:00 +10°C° 0 mm 2 mps 633 mmHg 36%
    16:00 +9°C° 0 mm 1 mps 633 mmHg 43%
    17:00 +7°C° 0 mm 1 mps 632 mmHg 51%
    18:00 +4°C° 0 mm 1 mps 631 mmHg 59%
    19:00 +4°C° 0 mm 1 mps 631 mmHg 60%
    20:00 +3°C° 0 mm 1 mps 631 mmHg 61%
    21:00 +3°C° 0 mm 1 mps 631 mmHg 61%
    22:00 +3°C° 0 mm 1 mps 631 mmHg 61%
    23:00 +2°C° 0 mm 1 mps 630 mmHg 61%

    26 February, Tuesday

    Time Temperature Precipitation Wind Pressure Humidity
    00:00 +2°C° 0 mm 1 mps 630 mmHg 61%
    01:00 +2°C° 0 mm 1 mps 630 mmHg 62%
    02:00 +2°C° 0 mm 1 mps 630 mmHg 62%
    03:00 +2°C° 0 mm 1 mps 630 mmHg 63%
    04:00 +2°C° 0 mm 1 mps 630 mmHg 58%
    05:00 +2°C° 0 mm 1 mps 630 mmHg 54%
    06:00 +2°C° 0 mm 1 mps 630 mmHg 50%
    07:00 +4°C° 0 mm 1 mps 631 mmHg 43%
    08:00 +6°C° 0 mm 1 mps 632 mmHg 37%
    09:00 +7°C° 0 mm 2 mps 633 mmHg 30%
    10:00 +8°C° 0 mm 2 mps 633 mmHg 30%
    11:00 +10°C° 0 mm 2 mps 634 mmHg 30%
    12:00 +12°C° 0 mm 2 mps 634 mmHg 29%
    13:00 +12°C° 0 mm 2 mps 634 mmHg 31%
    14:00 +12°C° 0 mm 2 mps 633 mmHg 32%
    15:00 +12°C° 0 mm 2 mps 633 mmHg 34%
    16:00 +9°C° 0 mm 1 mps 632 mmHg 41%
    17:00 +7°C° 0 mm 1 mps 631 mmHg 49%
    18:00 +5°C° 0 mm 1 mps 630 mmHg 56%
    19:00 +4°C° 0 mm 1 mps 630 mmHg 58%
    20:00 +3°C° 0 mm 1 mps 630 mmHg 60%
    21:00 +3°C° 0 mm 1 mps 630 mmHg 61%
    22:00 +3°C° 0 mm 1 mps 630 mmHg 60%
    23:00 +3°C° 0 mm 1 mps 630 mmHg 58%

    27 February, Wednesday

    Time Temperature Precipitation Wind Pressure Humidity
    00:00 +3°C° 0 mm 1 mps 629 mmHg 57%
    01:00 +3°C° 0 mm 1 mps 629 mmHg 54%
    02:00 +3°C° 0 mm 1 mps 629 mmHg 51%
    03:00 +3°C° 0 mm 1 mps 629 mmHg 48%
    04:00 +3°C° 0 mm 1 mps 629 mmHg 45%
    05:00 +3°C° 0 mm 1 mps 629 mmHg 42%
    06:00 +3°C° 0 mm 1 mps 629 mmHg 38%
    07:00 +6°C° 0 mm 1 mps 630 mmHg 34%
    08:00 +8°C° 0 mm 1 mps 631 mmHg 29%
    09:00 +10°C° 0 mm 0 mps 632 mmHg 25%
    10:00 +12°C° 0 mm 1 mps 632 mmHg 23%
    11:00 +14°C° 0 mm 1 mps 632 mmHg 20%
    12:00 +15°C° 0 mm 1 mps 633 mmHg 18%
    13:00 +15°C° 0 mm 1 mps 632 mmHg 20%
    14:00 +15°C° 0 mm 1 mps 632 mmHg 21%
    15:00 +14°C° 0 mm 1 mps 631 mmHg 23%
    16:00 +12°C° 0 mm 1 mps 630 mmHg 30%
    17:00 +8°C° 0 mm 0 mps 629 mmHg 38%
    18:00 +5°C° 0 mm 0 mps 628 mmHg 45%
    19:00 +5°C° 0 mm 0 mps 628 mmHg 44%
    20:00 +6°C° 0 mm 1 mps 628 mmHg 43%
    21:00 +5°C° 0 mm 1 mps 628 mmHg 43%
    22:00 +5°C° 0 mm 1 mps 627 mmHg 40%
    23:00 +5°C° 0 mm 1 mps 627 mmHg 37%
    Show more